GW3170 Weather Reports


Display with metric or nautical units.
time (UTC)temp
F
wind
direction
speed
MPH
gust
MPH
rain 1hr
in
rain 24hr
in
rain mn
in
humidity
%
barometer
mb
20260904225553 72 0 0.0 1.0 0.00 0.00 0.00 70 1012.7
20260904225053 73 0 0.0 1.0 0.00 0.00 0.00 69 1012.7
20260904224604 73 0 0.0 1.0 0.00 0.00 0.00 68 1012.6
20260904224102 74 0 0.0 2.0 0.00 0.00 0.00 66 1012.6
20260904223553 75 340 0.0 2.0 0.00 0.00 0.00 64 1012.6
20260904223109 76 0 0.0 3.0 0.00 0.00 0.00 62 1012.5
20260904222556 77 0 0.0 3.0 0.00 0.00 0.00 61 1012.5
20260904222103 77 283 0.0 2.0 0.00 0.00 0.00 61 1012.5
20260904221605 77 0 0.0 2.0 0.00 0.00 0.00 61 1012.7
20260904221100 77 0 0.0 2.0 0.00 0.00 0.00 60 1012.6
20260904220554 77 0 0.0 3.0 0.00 0.00 0.00 59 1012.7
20260904220116 77 0 0.0 3.0 0.00 0.00 0.00 60 1012.7
20260904215600 77 0 0.0 1.0 0.00 0.00 0.00 61 1012.8
20260904215057 77 0 0.0 3.0 0.00 0.00 0.00 61 1012.7
20260904214602 76 0 0.0 3.0 0.00 0.00 0.00 62 1012.7
20260904214059 77 0 1.0 3.0 0.00 0.00 0.00 59 1012.8
20260904213557 77 330 1.0 3.0 0.00 0.00 0.00 58 1012.9
20260904213111 78 310 0.0 3.0 0.00 0.00 0.00 60 1012.8
20260904212602 77 264 0.0 3.0 0.00 0.00 0.00 60 1012.7
20260904212054 77 288 0.0 7.0 0.00 0.00 0.00 59 1012.8
20260904211613 77 0 2.0 7.0 0.00 0.00 0.00 59 1012.8
20260904211057 77 283 2.0 5.0 0.00 0.00 0.00 58 1012.8
20260904210557 77 290 1.0 6.0 0.00 0.00 0.00 59 1012.9
20260904210105 77 312 1.0 8.0 0.00 0.00 0.00 57 1013.0
20260904205558 77 0 1.0 8.0 0.00 0.00 0.00 60 1013.0
20260904205057 78 325 1.0 5.0 0.00 0.00 0.00 60 1013.0
20260904204605 78 285 0.0 4.0 0.00 0.00 0.00 61 1013.1
20260904204059 78 311 1.0 4.0 0.00 0.00 0.00 62 1013.1
20260904203557 77 0 1.0 7.0 0.00 0.00 0.00 62 1013.1
20260904203108 77 11 1.0 7.0 0.00 0.00 0.00 62 1013.0
20260904202558 77 288 1.0 7.0 0.00 0.00 0.00 61 1013.1
20260904202057 77 315 2.0 8.0 0.00 0.00 0.00 62 1013.1
20260904201603 77 297 2.0 8.0 0.00 0.00 0.00 60 1013.2
20260904201100 77 318 3.0 8.0 0.00 0.00 0.00 61 1013.3
20260904200554 77 325 1.0 8.0 0.00 0.00 0.00 61 1013.3
20260904195554 77 312 1.0 6.0 0.00 0.00 0.00 61 1013.4
20260904195058 77 323 2.0 8.0 0.00 0.00 0.00 59 1013.5
20260904194617 78 278 2.0 8.0 0.00 0.00 0.00 60 1013.5
20260904194057 77 306 1.0 8.0 0.00 0.00 0.00 61 1013.4
20260904193554 77 290 4.0 8.0 0.00 0.00 0.00 61 1013.5
20260904193110 77 296 3.0 7.0 0.00 0.00 0.00 58 1013.6
20260904192557 77 0 1.0 7.0 0.00 0.00 0.00 61 1013.6
20260904192058 77 0 0.0 7.0 0.00 0.00 0.00 63 1013.6
20260904191602 77 296 3.0 10.0 0.00 0.00 0.00 62 1013.6
20260904191054 77 0 1.0 10.0 0.00 0.00 0.00 63 1013.7
20260904190557 77 0 2.0 10.0 0.00 0.00 0.00 64 1013.7
20260904190104 76 0 1.0 6.0 0.00 0.00 0.00 63 1013.7
20260904185555 76 315 2.0 5.0 0.00 0.00 0.00 62 1013.8
20260904185055 76 324 1.0 7.0 0.00 0.00 0.00 62 1013.7
20260904184602 77 328 2.0 10.0 0.00 0.00 0.00 62 1013.8
20260904184054 77 328 2.0 10.0 0.00 0.00 0.00 59 1013.8
20260904183556 77 289 2.0 11.0 0.00 0.00 0.00 61 1013.9
20260904183120 77 264 4.0 11.0 0.00 0.00 0.00 61 1013.8
20260904182554 77 290 3.0 7.0 0.00 0.00 0.00 63 1013.8
20260904182054 77 277 3.0 7.0 0.00 0.00 0.00 60 1013.8
20260904181604 78 274 1.0 5.0 0.00 0.00 0.00 64 1013.8
20260904181057 77 0 0.0 6.0 0.00 0.00 0.00 63 1013.9
20260904180554 77 314 1.0 6.0 0.00 0.00 0.00 62 1014.0
20260904180122 77 0 2.0 8.0 0.00 0.00 0.00 64 1014.1
20260904175558 76 293 2.0 8.0 0.00 0.00 0.00 63 1014.1
20260904175053 76 257 2.0 8.0 0.00 0.00 0.00 61 1014.1
20260904174610 77 288 2.0 6.0 0.00 0.00 0.00 60 1014.2
20260904174054 77 258 3.0 7.0 0.00 0.00 0.00 61 1014.2
20260904173554 78 272 3.0 7.0 0.00 0.00 0.00 63 1014.2
20260904173104 78 284 1.0 5.0 0.00 0.00 0.00 64 1014.2
20260904172554 78 290 1.0 6.0 0.00 0.00 0.00 63 1014.1
20260904172054 78 0 1.0 6.0 0.00 0.00 0.00 62 1014.1
20260904171604 78 334 1.0 7.0 0.00 0.00 0.00 60 1014.2
20260904171055 77 0 2.0 7.0 0.00 0.00 0.00 63 1014.2
20260904170557 78 311 1.0 4.0 0.00 0.00 0.00 61 1014.3
20260904165556 77 359 1.0 6.0 0.00 0.00 0.00 61 1014.3
20260904165056 77 300 2.0 6.0 0.00 0.00 0.00 60 1014.2
20260904164607 77 307 1.0 6.0 0.00 0.00 0.00 62 1014.4
20260904164059 77 356 0.0 7.0 0.00 0.00 0.00 63 1014.5
20260904163555 77 248 2.0 7.0 0.00 0.00 0.00 62 1014.3
20260904163104 77 0 0.0 7.0 0.00 0.00 0.00 65 1014.3
20260904162555 77 0 2.0 7.0 0.00 0.00 0.00 64 1014.3
20260904162058 77 284 1.0 5.0 0.00 0.00 0.00 63 1014.3
20260904161633 77 0 0.0 3.0 0.00 0.00 0.00 64 1014.2
20260904161056 77 0 0.0 4.0 0.00 0.00 0.00 64 1014.3
20260904160553 77 270 0.0 4.0 0.00 0.00 0.00 67 1014.2
20260904160106 77 0 1.0 5.0 0.00 0.00 0.00 65 1014.2
20260904155554 77 263 1.0 5.0 0.00 0.00 0.00 63 1014.2
20260904155052 77 0 0.0 3.0 0.00 0.00 0.00 66 1014.3
20260904154603 77 0 0.0 3.0 0.00 0.00 0.00 65 1014.3
20260904154055 77 345 0.0 2.0 0.00 0.00 0.00 66 1014.3
20260904153555 76 0 0.0 1.0 0.00 0.00 0.00 66 1014.2
20260904153103 77 0 0.0 1.0 0.00 0.00 0.00 65 1014.3
20260904152555 77 0 0.0 1.0 0.00 0.00 0.00 67 1014.2
20260904152053 76 0 0.0 2.0 0.00 0.00 0.00 66 1014.3
20260904151605 76 0 0.0 4.0 0.00 0.00 0.00 69 1014.3
20260904151055 76 307 1.0 4.0 0.00 0.00 0.00 67 1014.2
20260904150553 75 277 0.0 5.0 0.00 0.00 0.00 69 1014.2
20260904150105 75 0 0.0 8.0 0.00 0.00 0.00 73 1014.1
20260904145556 75 0 0.0 8.0 0.00 0.00 0.00 71 1014.2
20260904145058 74 307 3.0 7.0 0.00 0.00 0.00 69 1014.3
20260904144609 75 0 0.0 6.0 0.00 0.00 0.00 73 1014.5
20260904144052 74 288 1.0 6.0 0.00 0.00 0.00 72 1014.5
20260904143555 74 311 2.0 6.0 0.00 0.00 0.00 71 1014.4
20260904143102 74 321 0.0 4.0 0.00 0.00 0.00 73 1014.5
20260904142553 74 0 1.0 4.0 0.00 0.00 0.00 76 1014.3
20260904142053 74 287 0.0 4.0 0.00 0.00 0.00 77 1014.2
20260904141603 74 0 1.0 4.0 0.00 0.00 0.00 78 1014.3
20260904141055 74 294 1.0 3.0 0.00 0.00 0.00 79 1014.6
20260904140555 73 304 1.0 3.0 0.00 0.00 0.00 81 1014.3
20260904140106 73 0 0.0 3.0 0.00 0.00 0.00 82 1014.3
20260904135553 72 293 0.0 3.0 0.00 0.00 0.00 81 1014.5
20260904135053 72 0 0.0 2.0 0.00 0.00 0.00 85 1014.3
20260904134609 72 281 1.0 4.0 0.00 0.00 0.00 83 1014.3
20260904134054 71 0 0.0 4.0 0.00 0.00 0.00 86 1014.6
20260904133558 71 260 1.0 3.0 0.00 0.00 0.00 86 1014.5
20260904133115 70 236 1.0 4.0 0.00 0.00 0.00 87 1014.4
20260904132558 70 287 1.0 4.0 0.00 0.00 0.00 87 1014.6
20260904132054 70 286 0.0 3.0 0.00 0.00 0.00 89 1014.6
20260904131606 69 281 1.0 4.0 0.00 0.00 0.00 89 1014.6
20260904131054 69 308 1.0 4.0 0.00 0.00 0.00 90 1014.6
20260904130554 68 291 0.0 5.0 0.00 0.00 0.00 91 1014.6
20260904130104 68 0 1.0 5.0 0.00 0.00 0.00 92 1014.4
20260904125554 68 290 0.0 3.0 0.00 0.00 0.00 92 1014.3
20260904125055 67 0 0.0 1.0 0.00 0.00 0.00 93 1014.2
20260904124606 67 0 0.0 1.0 0.00 0.00 0.00 94 1014.2
20260904124132 66 0 0.0 1.0 0.00 0.00 0.00 94 1014.2
20260904123558 66 281 0.0 1.0 0.00 0.00 0.00 94 1014.3
20260904123107 66 0 0.0 1.0 0.00 0.00 0.00 95 1014.4
20260904122558 65 0 0.0 1.0 0.00 0.00 0.00 94 1014.4
20260904122059 65 240 0.0 0.0 0.00 0.00 0.00 94 1014.5
20260904121604 65 0 0.0 1.0 0.00 0.00 0.00 94 1014.3
20260904121057 65 0 0.0 1.0 0.00 0.00 0.00 94 1014.4
20260904120558 64 0 0.0 1.0 0.00 0.00 0.00 95 1014.4
20260904120111 64 0 0.0 0.0 0.00 0.00 0.00 95 1014.4
20260904115557 64 0 0.0 1.0 0.00 0.00 0.00 95 1014.4
20260904115057 63 0 0.0 1.0 0.00 0.00 0.00 95 1014.4
20260904114602 63 0 0.0 1.0 0.00 0.00 0.00 94 1014.3
20260904114059 62 0 0.0 0.0 0.00 0.00 0.00 94 1014.5
20260904113558 62 0 0.0 0.0 0.00 0.00 0.00 94 1014.3
20260904113105 62 0 0.0 0.0 0.00 0.00 0.00 93 1014.3
20260904112558 62 0 0.0 0.0 0.00 0.00 0.00 93 1014.2
20260904112057 62 0 0.0 0.0 0.00 0.00 0.00 93 1014.2
20260904111606 62 0 0.0 0.0 0.00 0.00 0.00 92 1014.1
20260904111057 62 0 0.0 0.0 0.00 0.00 0.00 92 1014.1
20260904110557 62 0 0.0 0.0 0.00 0.00 0.00 92 1014.1
20260904110105 62 0 0.0 0.0 0.00 0.00 0.00 92 1014.0
20260904105557 63 0 0.0 0.0 0.00 0.00 0.00 91 1014.0
20260904105057 63 0 0.0 0.0 0.00 0.00 0.00 91 1013.9
20260904104601 63 0 0.0 0.0 0.00 0.00 0.00 91 1013.8
20260904104058 63 0 0.0 0.0 0.00 0.00 0.00 91 1013.9
20260904103558 64 0 0.0 0.0 0.00 0.00 0.00 91 1013.8
20260904103103 64 0 0.0 3.0 0.00 0.00 0.00 91 1013.8
20260904102558 65 0 0.0 3.0 0.00 0.00 0.00 92 1013.8
20260904102056 65 290 0.0 3.0 0.00 0.00 0.00 92 1013.7
20260904101609 64 282 0.0 1.0 0.00 0.00 0.00 92 1013.7
20260904101058 64 271 0.0 1.0 0.00 0.00 0.00 92 1013.6
20260904100558 65 0 0.0 1.0 0.00 0.00 0.00 91 1013.4
20260904095558 65 285 0.0 3.0 0.00 0.00 0.00 92 1013.4
20260904095058 65 0 0.0 2.0 0.00 0.00 0.00 92 1013.3
20260904094604 65 0 0.0 2.0 0.00 0.00 0.00 92 1013.3
20260904094057 65 0 0.0 3.0 0.00 0.00 0.00 92 1013.3
20260904093600 65 289 1.0 3.0 0.00 0.00 0.00 92 1013.3
20260904093101 65 292 0.0 3.0 0.00 0.00 0.00 92 1013.3
20260904092554 65 288 0.0 3.0 0.00 0.00 0.00 92 1013.3
20260904092054 65 292 0.0 2.0 0.00 0.00 0.00 92 1013.4
20260904091605 65 0 0.0 1.0 0.00 0.00 0.00 92 1013.2
20260904091057 65 0 0.0 1.0 0.00 0.00 0.00 91 1013.3
20260904090553 65 0 0.0 0.0 0.00 0.00 0.00 91 1013.3
20260904090059 65 0 0.0 0.0 0.00 0.00 0.00 91 1013.2
20260904085553 65 0 0.0 2.0 0.00 0.00 0.00 91 1013.1
20260904085054 65 0 0.0 2.0 0.00 0.00 0.00 91 1013.0
20260904084604 65 265 0.0 1.0 0.00 0.00 0.00 91 1012.9
20260904084053 65 285 0.0 1.0 0.00 0.00 0.00 91 1012.9
20260904083555 66 0 0.0 1.0 0.00 0.00 0.00 90 1012.9
20260904083110 66 0 0.0 0.0 0.00 0.00 0.00 90 1013.0
20260904082557 66 0 0.0 2.0 0.00 0.00 0.00 90 1012.8
20260904082054 66 0 0.0 2.0 0.00 0.00 0.00 90 1012.8
20260904081606 66 0 0.0 2.0 0.00 0.00 0.00 90 1012.7
20260904081054 66 0 0.0 2.0 0.00 0.00 0.00 90 1012.7
20260904080554 66 0 0.0 2.0 0.00 0.00 0.00 90 1012.7
20260904080109 67 0 1.0 2.0 0.00 0.00 0.00 90 1012.6
20260904075555 67 0 0.0 2.0 0.00 0.00 0.00 90 1012.5
20260904075057 67 293 0.0 2.0 0.00 0.00 0.00 90 1012.5
20260904074615 67 0 0.0 2.0 0.00 0.00 0.00 90 1012.6
20260904074057 67 0 0.0 1.0 0.00 0.00 0.00 90 1012.5
20260904073554 67 0 0.0 1.0 0.00 0.00 0.00 91 1012.5
20260904073109 67 0 0.0 0.0 0.00 0.00 0.00 91 1012.5
20260904072554 67 0 0.0 0.0 0.00 0.00 0.00 91 1012.5
20260904072054 67 0 0.0 0.0 0.00 0.00 0.00 91 1012.3
20260904071604 67 0 0.0 0.0 0.00 0.00 0.00 91 1012.3
20260904071054 67 0 0.0 1.0 0.00 0.00 0.00 91 1012.4
20260904070554 67 0 0.0 1.0 0.00 0.00 0.00 91 1012.4
20260904065555 67 0 0.0 0.0 0.00 0.00 0.00 92 1012.4
20260904065054 66 0 0.0 0.0 0.00 0.00 0.00 92 1012.4
20260904064635 66 0 0.0 0.0 0.00 0.00 0.00 91 1012.4
20260904064054 67 0 0.0 0.0 0.00 0.00 0.00 91 1012.4
20260904063554 67 0 0.0 0.0 0.00 0.00 0.00 91 1012.4
20260904063128 67 0 0.0 0.0 0.00 0.00 0.00 92 1012.4
20260904062553 67 0 0.0 0.0 0.00 0.00 0.00 92 1012.4
20260904062057 67 0 0.0 0.0 0.00 0.00 0.00 92 1012.5
20260904061602 67 0 0.0 0.0 0.00 0.00 0.00 92 1012.5
20260904061055 67 0 0.0 0.0 0.00 0.00 0.00 92 1012.6
20260904060555 67 0 0.0 0.0 0.00 0.00 0.00 93 1012.6
20260904060126 68 0 0.0 0.0 0.00 0.00 0.00 93 1012.5
20260904055554 68 0 0.0 0.0 0.00 0.00 0.00 93 1012.7
20260904055054 68 0 0.0 0.0 0.00 0.00 0.00 93 1012.7
20260904054605 68 0 0.0 0.0 0.00 0.00 0.00 94 1012.7
20260904054054 68 0 0.0 0.0 0.00 0.00 0.00 94 1012.9
20260904053554 68 0 0.0 0.0 0.00 0.00 0.00 94 1013.0
20260904053103 67 0 0.0 0.0 0.00 0.00 0.00 93 1013.0
20260904052554 68 0 0.0 0.0 0.00 0.00 0.00 93 1013.0
20260904052054 68 0 0.0 0.0 0.00 0.00 0.00 93 1012.9
20260904051559 68 0 0.0 0.0 0.00 0.00 0.00 93 1012.9
20260904051056 69 0 0.0 0.0 0.00 0.00 0.00 93 1012.9
20260904050553 69 0 0.0 0.0 0.00 0.00 0.00 93 1013.0
20260904050104 69 0 0.0 1.0 0.00 0.00 0.00 94 1013.1
20260904045554 69 0 0.0 1.0 0.00 0.00 0.00 94 1013.1
20260904045054 69 310 0.0 1.0 0.00 0.00 0.00 94 1013.1
20260904044605 69 0 0.0 1.0 0.00 0.00 0.00 94 1013.1
20260904044055 68 341 0.0 0.0 0.00 0.00 0.00 94 1013.0
20260904043600 68 0 0.0 1.0 0.00 0.00 0.00 94 1013.0
20260904043111 68 0 0.0 1.0 0.00 0.00 0.00 94 1012.9
20260904042559 68 0 0.0 0.0 0.00 0.00 0.00 94 1012.9
20260904042057 68 0 0.0 0.0 0.00 0.00 0.00 93 1012.8
20260904041603 68 0 0.0 0.0 0.00 0.00 0.00 93 1012.8
20260904041054 68 0 0.0 0.0 0.00 0.00 0.00 93 1012.7
20260904040554 68 0 0.0 0.0 0.00 0.00 0.00 93 1012.8
20260904040106 68 0 0.0 0.0 0.00 0.00 0.00 93 1012.8
20260904035554 68 0 0.0 0.0 0.00 0.00 0.00 93 1012.8
20260904035055 68 0 0.0 0.0 0.00 0.00 0.00 93 1012.8
20260904034557 68 0 0.0 0.0 0.00 0.00 0.00 93 1012.7
20260904034054 68 0 0.0 0.0 0.00 0.00 0.00 93 1012.7
20260904033554 68 0 0.0 0.0 0.00 0.00 0.00 93 1012.7
20260904033105 68 0 0.0 0.0 0.00 0.00 0.00 93 1012.8
20260904032554 68 0 0.0 0.0 0.00 0.00 0.00 93 1012.8
20260904032053 68 0 0.0 0.0 0.00 0.00 0.00 93 1012.8
20260904031605 68 0 0.0 0.0 0.00 0.00 0.00 93 1012.9
20260904031053 68 0 0.0 0.0 0.00 0.00 0.00 93 1012.9
20260904030554 68 0 0.0 0.0 0.00 0.00 0.00 93 1012.9
20260904030103 68 0 0.0 0.0 0.00 0.00 0.00 93 1013.0
20260904025558 68 0 0.0 0.0 0.00 0.00 0.00 93 1012.9
20260904025054 68 0 0.0 0.0 0.00 0.00 0.00 93 1012.9
20260904024609 68 0 0.0 0.0 0.00 0.00 0.00 93 1012.9
20260904024055 68 0 0.0 0.0 0.00 0.00 0.00 93 1012.9
20260904023556 68 0 0.0 0.0 0.00 0.00 0.00 93 1013.0
20260904023120 68 0 0.0 0.0 0.00 0.00 0.00 92 1012.9
20260904022557 68 0 0.0 0.0 0.00 0.00 0.00 92 1012.8
20260904022055 68 0 0.0 0.0 0.00 0.00 0.00 92 1013.0
20260904021602 68 0 0.0 0.0 0.00 0.00 0.00 92 1013.2
20260904021054 68 0 0.0 0.0 0.00 0.00 0.00 92 1013.2
20260904020554 68 0 0.0 0.0 0.00 0.00 0.00 92 1013.2
20260904020104 68 0 0.0 0.0 0.00 0.00 0.00 92 1013.2
20260904015553 69 0 0.0 0.0 0.00 0.14 0.00 92 1013.1
20260904015054 69 0 0.0 0.0 0.00 0.14 0.00 92 1013.2
20260904014602 69 0 0.0 0.0 0.00 0.14 0.00 91 1013.2
20260904014054 69 0 0.0 0.0 0.00 0.14 0.00 91 1013.2
20260904013556 69 0 0.0 0.0 0.00 0.14 0.00 91 1013.1
20260904013124 69 0 0.0 0.0 0.00 0.14 0.00 91 1013.1
20260904012559 69 0 0.0 0.0 0.00 0.14 0.00 91 1013.0
20260904012056 69 0 0.0 0.0 0.00 0.14 0.00 91 1013.0
20260904011603 69 0 0.0 0.0 0.00 0.14 0.00 91 1012.8
20260904011054 69 0 0.0 0.0 0.00 0.14 0.00 90 1012.6
20260904010558 70 0 0.0 0.0 0.00 0.14 0.00 90 1012.8
20260904010100 70 0 0.0 0.0 0.00 0.14 0.00 90 1013.0
20260904005552 70 0 0.0 0.0 0.00 0.19 0.00 90 1013.0
20260904005054 70 0 0.0 0.0 0.00 0.19 0.00 90 1013.1
20260904004602 70 0 0.0 0.0 0.00 0.19 0.00 90 1013.1
20260904004054 70 0 0.0 0.0 0.00 0.19 0.00 89 1013.2
20260904003553 70 0 0.0 0.0 0.00 0.19 0.00 89 1013.2
20260904003103 71 0 0.0 0.0 0.00 0.19 0.00 88 1013.1
20260904002555 71 0 0.0 0.0 0.00 0.19 0.00 88 1013.1
20260904002055 71 0 0.0 0.0 0.00 0.19 0.00 88 1013.0
20260904001610 71 0 0.0 0.0 0.00 0.19 0.00 88 1013.0
20260904001053 71 0 0.0 0.0 0.00 0.19 0.00 87 1012.9
20260904000558 72 0 0.0 0.0 0.00 0.19 0.00 87 1012.8
20260904000100 72 0 0.0 0.0 0.00 0.19 0.00 87 1012.7
20260903235556 72 0 0.0 0.0 0.00 0.19 0.00 86 1012.8
20260903235054 72 0 0.0 0.0 0.00 0.19 0.00 86 1012.8
20260903234601 73 0 0.0 0.0 0.00 0.19 0.00 85 1012.7
20260903234054 73 0 0.0 0.0 0.00 0.19 0.00 85 1012.7
20260903233556 73 0 0.0 0.0 0.00 0.19 0.00 84 1012.5
20260903233101 74 0 0.0 0.0 0.00 0.19 0.00 84 1012.6
20260903232555 74 0 0.0 0.0 0.00 0.19 0.00 83 1012.5
20260903232054 74 0 0.0 0.0 0.00 0.19 0.00 83 1012.7
20260903231609 75 0 0.0 0.0 0.00 0.19 0.00 82 1012.8
20260903231054 75 0 0.0 0.0 0.00 0.19 0.00 82 1012.7
20260903230556 75 0 0.0 0.0 0.00 0.19 0.00 81 1012.4
20260903230058 76 0 0.0 0.0 0.00 0.19 0.00 81 1012.5